FW7205 Weather Reports


time (UTC)temp
C
wind
direction
speed
KPH
gust
KPH
rain 1hr
cm
rain 24hr
cm
rain mn
cm
humidity
%
barometer
mb
20260506130056 23 0 0.0 0.0 0.00 0.00 0.00 92 1009.2
20260506124556 23 0 0.0 1.6 0.00 0.00 0.00 92 1008.7
20260506123055 23 0 0.0 0.0 0.00 0.00 0.00 92 1008.7
20260506121553 23 0 0.0 1.6 0.00 0.00 0.00 91 1008.9
20260506120057 23 0 0.0 1.6 0.00 0.00 0.00 91 1008.7
20260506114555 23 0 0.0 0.0 0.00 0.00 0.00 91 1008.7
20260506113055 23 0 0.0 0.0 0.00 0.00 0.00 91 1008.3
20260506111554 23 0 0.0 1.6 0.00 0.00 0.00 91 1008.3
20260506110054 23 0 0.0 1.6 0.00 0.00 0.00 91 1008.1
20260506104558 23 0 0.0 0.0 0.00 0.00 0.00 91 1008.0
20260506103057 23 0 0.0 0.0 0.00 0.00 0.00 91 1007.9
20260506101553 23 0 0.0 0.0 0.00 0.00 0.00 91 1007.9
20260506100055 23 0 0.0 1.6 0.00 0.00 0.00 91 1007.5
20260506094553 23 0 0.0 1.6 0.00 0.00 0.00 91 1007.3
20260506093052 23 0 0.0 4.8 0.00 0.00 0.00 91 1007.3
20260506091558 23 0 0.0 3.2 0.00 0.00 0.00 91 1007.4
20260506090100 23 0 0.0 4.8 0.00 0.00 0.00 91 1007.2
20260506084558 23 0 0.0 3.2 0.00 0.00 0.00 91 1007.1
20260506083056 23 0 0.0 4.8 0.00 0.00 0.00 91 1007.2
20260506081557 23 260 0.0 3.2 0.00 0.00 0.00 91 1007.2
20260506080104 23 0 0.0 6.4 0.00 0.00 0.00 91 1007.1
20260506073055 23 0 0.0 6.4 0.00 0.00 0.00 91 1007.3
20260506071604 23 234 1.6 6.4 0.00 0.00 0.00 90 1007.3
20260506070104 23 0 0.0 6.4 0.00 0.00 0.00 90 1007.3
20260506061554 23 0 0.0 6.4 0.00 0.00 0.00 89 1008.1
20260506050107 24 114 0.0 4.8 0.00 0.00 0.00 87 1007.7
20260506044558 24 158 0.0 9.7 0.00 0.00 0.00 87 1007.8
20260506043053 24 73 0.0 8.0 0.00 0.00 0.00 86 1007.9
20260506041552 24 0 0.0 4.8 0.00 0.00 0.00 86 1007.7
20260506040055 25 0 0.0 6.4 0.00 0.00 0.00 85 1007.4
20260506034610 25 116 1.6 6.4 0.00 0.00 0.00 85 1007.3
20260506033054 25 0 1.6 6.4 0.00 0.00 0.00 85 1007.2
20260506031556 25 0 0.0 4.8 0.00 0.00 0.00 84 1007.2
20260506030056 25 154 1.6 4.8 0.00 0.00 0.00 84 1006.8
20260506024612 25 217 0.0 4.8 0.00 0.00 0.00 83 1006.5
20260506023054 25 140 0.0 3.2 0.00 0.00 0.00 82 1006.4
20260506021553 25 94 0.0 4.8 0.00 0.00 0.00 82 1006.5
20260506020054 25 205 0.0 6.4 0.00 0.00 0.00 82 1006.3
20260506014553 26 236 0.0 6.4 0.00 0.00 0.00 81 1006.2
20260506013107 26 0 0.0 4.8 0.00 0.00 0.00 81 1005.9
20260506011606 26 0 0.0 3.2 0.00 0.00 0.00 80 1005.7
20260506010056 26 0 0.0 4.8 0.00 0.00 0.00 79 1005.2
20260506004555 26 277 0.0 6.4 0.00 0.00 0.00 78 1005.0
20260506003055 27 150 0.0 4.8 0.00 0.00 0.00 78 1005.0
20260506001554 27 154 0.0 4.8 0.00 0.00 0.00 78 1005.2
20260506000055 27 0 1.6 6.4 0.00 0.00 0.00 77 1005.2
20260505234557 27 0 1.6 8.0 0.00 0.00 0.00 77 1005.1
20260505233053 27 57 0.0 6.4 0.00 0.00 0.00 76 1004.9
20260505231552 27 0 0.0 6.4 0.00 0.00 0.00 76 1004.9
20260505230104 28 117 0.0 4.8 0.00 0.00 0.00 76 1005.0
20260505224553 28 0 1.6 9.7 0.00 0.00 0.00 75 1005.1
20260505223108 28 113 1.6 6.4 0.00 0.00 0.00 75 1004.9
20260505221557 28 0 1.6 9.7 0.00 0.00 0.00 76 1005.0
20260505220056 28 148 1.6 6.4 0.00 0.00 0.00 76 1005.2
20260505214553 28 255 1.6 6.4 0.00 0.00 0.00 74 1005.2
20260505213100 28 198 1.6 9.7 0.00 0.00 0.00 73 1005.5
20260505211555 28 212 0.0 6.4 0.00 0.00 0.00 75 1005.3
20260505210056 28 132 1.6 6.4 0.00 0.00 0.00 74 1005.7
20260505204601 29 0 1.6 6.4 0.00 0.00 0.00 72 1006.1
20260505203108 28 212 1.6 6.4 0.00 0.00 0.00 72 1006.1
20260505201600 28 168 1.6 6.4 0.00 0.00 0.00 74 1006.4
20260505194610 28 186 0.0 6.4 0.00 0.00 0.00 75 1006.7
20260505193056 28 137 1.6 11.3 0.00 0.00 0.00 75 1006.8
20260505191554 28 298 1.6 8.0 0.00 0.00 0.00 73 1007.0
20260505190054 27 0 1.6 6.4 0.00 0.00 0.00 76 1007.1
20260505184559 27 0 0.0 8.0 0.00 0.00 0.00 77 1007.2
20260505183101 27 128 3.2 6.4 0.00 0.00 0.00 76 1007.1
20260505181557 27 0 1.6 9.7 0.00 0.00 0.00 76 1007.2
20260505174600 27 182 1.6 9.7 0.00 0.00 0.00 77 1007.5
20260505173056 27 201 1.6 6.4 0.00 0.00 0.00 78 1007.6
20260505171553 26 61 0.0 8.0 0.00 0.00 0.00 80 1007.8
20260505170055 26 138 1.6 6.4 0.00 0.00 0.00 81 1007.7
20260505164600 25 135 1.6 8.0 0.00 0.00 0.00 84 1007.9
20260505163056 24 0 0.0 6.4 0.00 0.00 0.00 87 1008.1
20260505161551 23 219 1.6 6.4 0.00 0.00 0.00 88 1008.1
20260505153109 23 0 0.0 6.4 0.00 0.00 0.00 90 1008.1
20260505151557 22 75 0.0 3.2 0.00 0.00 0.00 91 1008.0
20260505140105 21 200 0.0 6.4 0.00 0.00 0.00 92 1007.8